GSAT 6

导读 | 豆包AI

GSAT 6是印度空间研究组织(ISRO)研制的静止轨道通信卫星,于2015年8月27日成功发射。该卫星配备了S波段大型可展开天线,主要面向军事移动通信与民生通信服务,支持手持终端通信,可提升印度偏远区域的通信覆盖能力。作为印度国产GSAT系列通信卫星的重要成员,其设计寿命约9年,体现了印度自主发展航天通信技术的成果,增强了印度本土卫星通信的自主可控能力,为区域应急通信和战略通信提供支撑。

Basic Information
目录编号:
40880
目录名称:
GSAT 6
国际标识:
2015-041A
轨道中心:
EARTH
卫星名称:
GSAT 6
卫星全名:
--
卫星状态:
在轨 (已飞行3900 天)
发射日期:
2015-08-27 UTC
国别 :
印度 (IN)
星等 :
--
Orbit Information
数据来源 国际轨道数据 AOE轨道数据
星历时间 2026-05-01T06:20:42+0800
9小时前
查看轨道信息
2026-05-01T05:00:00+0800
10小时前
查看轨道信息
半长轴 42164.644km 42164.812km
偏心率 0.0003072 0.000318
轨道倾角 1.798° 1.797°
近地点辐角 318.751° 319.813°
升交点赤经 83.151° 83.160°
平近点角 234.704° 213.400°
近地点 35773.554km 35773.266km
远地点 35799.46km 35800.084km
周期 1436.092分钟 1436.101分钟
每日圈数 1.002721 1.002715
Detailed Information
使用方式:
暂无
2D Orbit Map
3D Orbit Map
Orbit Altitude Analysis Chart
Orbit Inclination Analysis Chart
Orbit Comprehensive Analysis Chart
View Comprehensive Chart